Proserpine Hamilton Isla, Australia

3:34 AM AEST on February 23, 2017 (GMT +1000)
Hamilton Island

Weather History for YBHM - November, 2012

Change the Weather History Date:

Thursday, November 15, 2012

  Actual Average Record
Temperature  
Mean Temperature 77 °F -  
Max Temperature 81 °F - - ()
Min Temperature 73 °F - - ()
Cooling Degree Days 12    
Growing Degree Days 27 (Base 50)    
Moisture  
Dew Point 55 °F    
Average Humidity 46    
Maximum Humidity 61    
Minimum Humidity 25    
Precipitation  
Precipitation 0.00 in - - ()
Sea Level Pressure  
Sea Level Pressure 29.98 in    
Wind  
Wind Speed 14 mph ()    
Max Wind Speed 21 mph    
Max Gust Speed -    
T = Trace of Precipitation, MM = Missing Value Source: Averaged Metar Reports

Daily Weather History Graph

Daily Weather History Graph

Search for Another Location

Airport or City:

Trip Planner

Search our weather history database for the weather conditions in past years. The results will help you decide how hot, cold, wet, or windy it might be!

Date:

Astronomy

Nov. 15, 2012 Rise Set
Actual Time 5:16 AM AEST 6:21 PM AEST
Civil Twilight 4:52 AM AEST 6:44 PM AEST
Nautical Twilight 4:24 AM AEST 7:12 PM AEST
Astronomical Twilight 3:56 AM AEST 7:41 PM AEST
Moon 6:11 AM AEST (11/15) 7:49 PM AEST (11/15)
Length of Visible Light 13h 52m
Length of Day
13h 04m
New Moon, 2% of the Moon is Illuminated
Nov 15
New Moon
Nov 21
First Quarter
Nov 29
Full
Dec 7
Last Quarter
Dec 13
New

Hourly Weather History & Observations

Time (AEST) Temp. Heat Index Dew Point Humidity Pressure Visibility Wind Dir Wind Speed Gust Speed Precip Events Conditions
12:00 AM 74 °F - 59 °F 49% 30.03 in - ESE 20.7 mph - -  
12:00 AM 75.2 °F - 59.0 °F 57% 30.04 in - ESE 20.7 mph - N/A   Unknown
12:30 AM 73.4 °F - 57.2 °F 57% 30.01 in - East 19.6 mph - N/A   Unknown
1:00 AM 73.4 °F - 57.2 °F 57% 30.01 in - East 19.6 mph - N/A   Unknown
1:30 AM 73.4 °F - 57.2 °F 57% 29.98 in - East 16.1 mph - N/A   Unknown
2:00 AM 73.4 °F - 53.6 °F 50% 29.98 in - East 12.7 mph - N/A   Unknown
2:30 AM 73.4 °F - 53.6 °F 50% 29.98 in - East 11.5 mph - N/A   Unknown
3:00 AM 74 °F - 56 °F 43% 29.97 in - East 12.7 mph - -  
3:00 AM 73.4 °F - 55.4 °F 53% 29.98 in - East 12.7 mph - N/A   Unknown
3:30 AM 73.4 °F - 53.6 °F 50% 29.98 in - East 12.7 mph - N/A   Unknown
4:00 AM 73.4 °F - 55.4 °F 53% 29.98 in - ESE 12.7 mph - N/A   Unknown
4:30 AM 73.4 °F - 55.4 °F 53% 29.98 in - ESE 15.0 mph - N/A   Unknown
5:00 AM 73.4 °F - 55.4 °F 53% 29.98 in - ESE 13.8 mph - N/A   Unknown
5:30 AM 73.4 °F - 57.2 °F 57% 29.98 in - ESE 15.0 mph - N/A   Unknown
6:00 AM 75 °F - 56 °F 41% 30.00 in - ESE 13.8 mph - -  
6:00 AM 75.2 °F - 55.4 °F 50% 30.01 in - ESE 13.8 mph - N/A   Unknown
6:30 AM 75.2 °F - 55.4 °F 50% 30.01 in - ESE 13.8 mph - N/A   Unknown
7:00 AM 77.0 °F - 55.4 °F 47% 30.01 in - ESE 12.7 mph - N/A   Unknown
7:30 AM 77.0 °F - 55.4 °F 47% 30.01 in - ESE 12.7 mph - N/A   Unknown
8:00 AM 78.8 °F - 57.2 °F 47% 30.01 in - East 13.8 mph - N/A   Unknown
8:30 AM 78.8 °F - 59.0 °F 51% 30.01 in - ESE 13.8 mph - N/A   Unknown
9:00 AM 79 °F - 57 °F 37% 30.03 in - ESE 12.7 mph - -  
9:00 AM 78.8 °F - 57.2 °F 47% 30.04 in - ESE 12.7 mph - N/A   Unknown
10:00 AM 78.8 °F - 57.2 °F 47% 30.04 in - SE 12.7 mph - N/A   Unknown
10:30 AM 80.6 °F 81.1 °F 59.0 °F 48% 30.01 in - East 13.8 mph - N/A   Unknown
11:00 AM 78.8 °F - 55.4 °F 44% 30.01 in - East 12.7 mph - N/A   Unknown
11:30 AM 80.6 °F 80.8 °F 57.2 °F 45% 30.01 in - ESE 12.7 mph - N/A   Unknown
12:00 PM 81 °F - 59 °F 37% 29.99 in - ESE 13.8 mph - -  
12:00 PM 80.6 °F 81.1 °F 59.0 °F 48% 29.98 in - ESE 13.8 mph - N/A   Unknown
12:30 PM 78.8 °F - 57.2 °F 47% 29.98 in - East 13.8 mph - N/A   Unknown
1:00 PM 78.8 °F - 57.2 °F 47% 29.98 in - East 15.0 mph - N/A   Unknown
1:30 PM 78.8 °F - 57.2 °F 47% 29.95 in - East 13.8 mph - N/A   Unknown
2:00 PM 80.6 °F 81.1 °F 59.0 °F 48% 29.95 in - East 15.0 mph - N/A   Unknown
2:30 PM 78.8 °F - 59.0 °F 51% 29.95 in - East 15.0 mph - N/A   Unknown
3:00 PM 78 °F - 59 °F 41% 29.94 in - East 17.3 mph - -  
3:00 PM 78.8 °F - 59.0 °F 51% 29.95 in - East 17.3 mph - N/A   Unknown
3:30 PM 77.0 °F - 57.2 °F 50% 29.92 in - East 17.3 mph - N/A   Unknown
4:00 PM 77.0 °F - 57.2 °F 50% 29.92 in - East 17.3 mph - N/A   Unknown
4:30 PM 77.0 °F - 55.4 °F 47% 29.95 in - East 17.3 mph - N/A   Unknown
5:00 PM 77.0 °F - 55.4 °F 47% 29.92 in - East 18.4 mph - N/A   Unknown
5:30 PM 77.0 °F - 53.6 °F 44% 29.95 in - East 19.6 mph - N/A   Unknown
6:00 PM 76 °F - 49 °F 28% 29.95 in - East 18.4 mph - -  
6:00 PM 75.2 °F - 48.2 °F 38% 29.95 in - East 18.4 mph - N/A   Unknown
6:30 PM 75.2 °F - 46.4 °F 36% 29.95 in - East 18.4 mph - N/A   Unknown
7:00 PM 75.2 °F - 46.4 °F 36% 29.95 in - East 19.6 mph - N/A   Unknown
7:30 PM 75.2 °F - 46.4 °F 36% 29.95 in - East 17.3 mph - N/A   Unknown
8:00 PM 75.2 °F - 46.4 °F 36% 29.98 in - East 18.4 mph - N/A   Unknown
8:30 PM 75.2 °F - 48.2 °F 38% 29.98 in - East 17.3 mph - N/A   Unknown
9:00 PM 75 °F - 46 °F 25% 29.98 in - East 15.0 mph - -  
9:00 PM 75.2 °F - 46.4 °F 36% 29.98 in - East 15.0 mph - N/A   Unknown
9:30 PM 75.2 °F - 44.6 °F 34% 29.98 in - East 15.0 mph - N/A   Unknown
10:00 PM 75.2 °F - 42.8 °F 31% 30.01 in - East 11.5 mph - N/A   Unknown
10:30 PM 75.2 °F - 60.8 °F 61% 30.01 in - East 10.4 mph - N/A   Unknown
11:00 PM 75.2 °F - 59.0 °F 57% 29.98 in - East 12.7 mph - N/A   Unknown
11:30 PM 75.2 °F - 59.0 °F 57% 29.98 in - East 8.1 mph - N/A   Unknown